FW6482 Weather Reports


time (UTC)temp
F
wind
direction
speed
knots
gust
knots
rain 1hr
in
rain 24hr
in
rain mn
in
humidity
%
barometer
mb
20260502183111 67 225 1.7 5.2 0.00 0.01 0.01 77 1012.0
20260502181556 68 94 1.7 2.6 0.00 0.01 0.01 76 1011.8
20260502163054 73 102 2.6 7.0 0.00 0.00 0.00 62 1012.7
20260502161552 74 5 0.9 5.2 0.00 0.00 0.00 59 1012.5
20260502151541 75 32 1.7 4.3 0.00 0.00 0.00 55 1013.0
20260502123029 79 156 6.1 12.2 0.00 0.00 0.00 39 1014.5
20260502121521 79 144 4.3 11.3 0.00 0.00 0.00 38 1014.6
20260502114516 79 129 3.5 8.7 0.00 0.00 0.00 39 1015.0
20260502113012 78 94 2.6 8.7 0.00 0.00 0.00 40 1015.4
20260502111517 77 30 2.6 9.6 0.00 0.00 0.00 41 1015.6
20260502110012 76 91 3.5 9.6 0.00 0.00 0.00 40 1015.8
20260502104505 77 48 1.7 7.8 0.00 0.00 0.00 39 1016.0
20260502103003 75 80 1.7 7.0 0.00 0.00 0.00 40 1016.2
20260502101501 74 59 1.7 4.3 0.00 0.00 0.00 41 1016.5
20260502071524 61 171 3.5 7.0 0.00 0.00 0.00 52 1017.5
20260502070022 62 182 3.5 6.1 0.00 0.00 0.00 52 1017.5
20260502064521 61 186 3.5 7.0 0.00 0.00 0.00 51 1017.5
20260502063026 61 171 3.5 5.2 0.00 0.00 0.00 52 1017.4
20260502061514 60 188 3.5 5.2 0.00 0.00 0.00 54 1017.5
20260502060011 58 188 1.7 3.5 0.00 0.00 0.00 56 1017.6
20260502054509 56 188 1.7 4.3 0.00 0.00 0.00 60 1017.6
20260502053003 55 188 2.6 5.2 0.00 0.00 0.00 62 1017.6
20260502051503 54 189 1.7 5.2 0.00 0.00 0.00 62 1017.6
20260502050058 53 180 1.7 3.5 0.00 0.00 0.00 61 1017.4
20260502044555 53 180 2.6 4.3 0.00 0.00 0.00 61 1017.4
20260502043055 52 180 1.7 3.5 0.00 0.00 0.00 62 1017.4
20260502041604 52 180 1.7 3.5 0.00 0.00 0.00 61 1017.3
20260502040046 52 180 1.7 4.3 0.00 0.00 0.00 61 1017.6
20260502034543 52 180 2.6 3.5 0.00 0.00 0.00 61 1017.7
20260502033050 53 180 2.6 6.1 0.00 0.00 0.00 61 1017.8
20260502031539 53 184 0.9 3.5 0.00 0.00 0.00 61 1017.8
20260502030038 53 190 1.7 3.5 0.00 0.00 0.00 61 1017.9
20260502024538 53 190 2.6 5.2 0.00 0.00 0.00 62 1018.0
20260502023035 53 190 2.6 5.2 0.00 0.00 0.00 61 1017.9
20260502021532 53 172 2.6 3.5 0.00 0.00 0.00 59 1018.0
20260502020030 54 172 1.7 4.3 0.00 0.00 0.00 58 1018.2
20260502014532 54 110 0.9 2.6 0.00 0.00 0.00 57 1018.2
20260502013026 54 110 1.7 2.6 0.00 0.00 0.00 58 1018.4
20260502011524 54 110 1.7 2.6 0.00 0.00 0.00 57 1018.4
20260502010024 55 110 1.7 3.5 0.00 0.00 0.00 56 1018.5
20260502004519 55 110 1.7 3.5 0.00 0.00 0.00 56 1018.7
20260502003016 55 109 2.6 3.5 0.00 0.00 0.00 55 1018.9
20260502001515 56 109 1.7 3.5 0.00 0.00 0.00 54 1019.0
20260502000012 56 109 2.6 3.5 0.00 0.00 0.00 52 1019.1
20260501234510 57 109 1.7 3.5 0.00 0.00 0.00 51 1019.3
20260501233007 58 109 1.7 3.5 0.00 0.00 0.00 49 1019.3
20260501231505 58 109 1.7 2.6 0.00 0.00 0.00 48 1019.4
20260501230004 58 109 1.7 3.5 0.00 0.00 0.00 48 1019.5
20260501224502 58 109 1.7 3.5 0.00 0.00 0.00 48 1019.5
20260501223002 59 109 1.7 3.5 0.00 0.00 0.00 48 1019.5
20260501221559 59 109 1.7 3.5 0.00 0.00 0.00 47 1019.5
20260501220100 59 109 1.7 3.5 0.00 0.00 0.00 46 1019.6
20260501214558 59 109 1.7 2.6 0.00 0.00 0.00 44 1019.5
20260501213100 60 109 1.7 2.6 0.00 0.00 0.00 44 1019.7
20260501211556 61 109 1.7 3.5 0.00 0.00 0.00 43 1019.8
20260501210058 61 109 1.7 3.5 0.00 0.00 0.00 42 1019.7
20260501204616 62 109 0.9 3.5 0.00 0.00 0.00 41 1019.8
20260501203054 62 109 1.7 3.5 0.00 0.00 0.00 40 1019.9
20260501201554 63 109 1.7 2.6 0.00 0.00 0.00 40 1019.8
20260501200054 64 109 1.7 3.5 0.00 0.00 0.00 38 1019.8
20260501194555 65 109 0.9 2.6 0.00 0.00 0.00 38 1019.8
20260501193053 66 109 1.7 3.5 0.00 0.00 0.00 36 1019.8
20260501191558 67 109 0.9 2.6 0.00 0.00 0.00 35 1019.8
20260501190051 68 109 0.0 2.6 0.00 0.00 0.00 34 1019.8
20260501184551 68 109 0.9 3.5 0.00 0.00 0.00 34 1019.6